Wind_Speed
19 18 17 16 15 14 12 11 11 11 11 12 13 13 14 14 14 13 13 14 15 16 16 15 14 13 12 12 12 12 12 12 12 13 13 15 17 18 19 19 20 20 20 20 20 21 21 22 23 24 26 27 28 29 30 31 32 33 34 34 35 37 38 39 40 39 37 38 40 41 42 44 44 43 43 42 40 39 38 38 38 38 38 38 38
19 18 17 16 15 13 12 11 10 10 11 12 13 14 14 14 13 13 14 15 15 15 14 13 12 11 11 12 12 12 12 12 12 13 14 16 17 18 19 19 19 19 19 19 20 21 21 22 23 24 25 26 27 28 29 30 31 32 32 33 34 36 38 39 40 41 40 40 41 42 43 45 46 46 47 47 44 42 39 36 35 34 34 35 36
19 18 17 16 14 13 12 12 12 12 13 14 14 14 14 14 14 14 14 15 15 14 12 11 11 11 11 11 11 12 12 12 12 13 15 16 17 18 18 19 18 18 18 19 20 21 21 22 23 24 25 26 27 28 29 30 30 31 32 33 34 35 36 38 40 41 42 42 42 44 45 46 47 48 48 48 46 44 41 36 33 32 32 32 33
19 18 17 16 15 14 14 14 15 15 15 15 15 15 15 15 14 14 15 14 13 12 11 11 11 10 11 11 11 11 11 11 12 13 15 16 17 17 18 18 18 17 18 19 20 20 21 22 23 24 25 26 27 28 29 30 30 31 32 33 33 34 35 37 39 41 43 43 44 45 46 47 48 48 49 49 47 45 42 39 35 32 31 30 30
19 19 18 16 15 15 15 15 16 15 15 16 17 16 15 14 14 14 15 13 12 11 11 11 11 11 11 11 11 11 11 11 13 14 15 16 16 17 17 16 17 17 17 18 19 20 20 21 22 23 24 26 27 28 28 29 30 31 32 33 33 34 35 37 39 40 42 44 45 46 47 48 49 49 49 49 48 46 44 41 37 34 32 29 27
21 19 18 16 16 15 15 14 14 15 16 17 18 17 15 14 14 14 14 12 11 11 11 11 10 11 10 10 10 10 11 12 13 14 15 16 16 16 15 16 16 17 17 18 18 19 20 21 22 23 24 25 26 27 28 29 31 32 32 33 34 35 36 37 39 40 42 44 46 47 47 48 49 49 49 49 50 49 47 43 37 35 34 30 27
21 20 18 17 16 14 13 13 14 15 16 17 18 16 14 14 14 14 12 11 10 10 10 11 11 10 10 10 10 10 11 12 13 14 15 16 16 15 15 15 16 16 16 17 17 18 20 21 22 23 25 26 26 27 28 29 30 32 33 34 35 36 37 38 39 41 42 44 46 48 48 49 49 50 50 50 50 50 49 47 40 36 37 36 33
21 20 19 17 15 13 12 13 15 15 16 17 17 15 14 14 14 13 12 11 10 10 10 11 10 10 9 9 10 11 12 12 13 14 15 15 14 14 14 15 16 16 16 16 17 18 19 21 22 23 24 25 26 28 29 30 31 32 34 35 37 38 38 39 40 42 43 45 46 48 49 49 50 51 51 52 52 51 51 51 48 44 41 41 40
21 20 19 17 15 13 13 14 14 14 16 17 17 15 15 14 14 12 11 11 10 10 11 11 10 10 10 10 10 11 12 13 14 15 14 14 13 13 14 14 15 15 16 17 17 18 20 21 22 23 23 25 27 28 29 31 32 34 35 37 38 39 39 40 41 43 44 46 47 49 50 51 51 53 54 54 55 55 54 54 54 52 49 45 44
21 20 19 17 15 14 13 14 14 14 16 17 17 16 15 15 13 12 11 11 10 11 11 11 10 10 10 10 11 11 12 13 14 14 13 12 12 13 13 14 14 15 16 17 18 19 20 21 21 22 23 24 26 27 28 30 32 34 35 37 38 39 40 41 42 44 45 46 47 50 52 52 53 54 56 56 56 56 57 58 58 57 56 53 47
23 21 20 18 16 15 14 14 14 15 16 17 17 16 15 15 13 12 11 11 10 11 11 11 11 11 11 11 11 11 12 13 13 12 12 11 12 12 13 13 14 15 16 17 18 19 20 21 21 22 23 24 25 26 27 29 31 32 33 35 36 38 40 42 43 44 45 46 47 49 52 53 54 54 56 57 58 58 58 60 60 60 61 60 54
24 22 20 19 17 15 14 15 15 15 17 18 18 17 16 15 14 12 11 11 11 12 12 12 12 11 11 11 11 11 12 12 12 11 11 11 11 11 12 13 14 15 16 17 18 19 20 21 22 22 23 24 24 26 27 29 30 31 32 33 34 36 38 40 42 43 45 46 47 49 51 53 54 55 57 58 59 59 59 59 61 63 64 64 60
26 23 21 19 17 16 16 16 15 16 18 19 18 17 16 15 14 13 12 12 12 13 13 12 12 11 11 11 11 12 12 11 10 10 10 10 10 10 11 12 13 14 16 17 17 18 19 21 22 23 23 24 24 26 27 28 29 30 31 32 33 34 35 36 38 41 43 46 47 48 50 52 54 55 56 58 59 59 60 61 63 65 65 64 58
28 24 22 19 18 17 17 17 16 17 18 20 19 18 17 16 15 13 13 13 14 14 14 13 12 12 11 11 11 11 11 10 9 9 9 9 9 10 10 11 13 14 15 16 17 18 19 20 21 22 23 24 25 27 27 28 29 29 30 31 32 33 34 34 36 38 41 44 46 47 48 50 53 54 55 56 57 58 60 62 64 65 65 60 50
28 26 23 20 19 18 17 17 18 18 19 21 20 19 18 16 15 14 14 14 14 15 14 14 13 12 11 11 11 10 9 9 9 9 8 8 8 9 10 11 12 13 14 15 17 18 19 20 21 22 24 25 27 28 28 28 29 30 31 32 32 33 33 35 37 39 41 43 44 46 47 48 50 53 54 54 54 55 58 60 63 64 60 51 39
28 26 24 21 20 19 18 18 18 19 20 21 21 19 18 17 15 14 14 15 15 15 15 14 13 12 11 11 10 9 9 8 8 8 7 7 8 8 9 10 11 12 13 15 16 17 19 20 21 23 25 26 27 28 28 29 29 30 30 31 32 33 33 34 36 38 40 41 42 44 45 47 48 50 51 52 52 54 57 60 62 61 53 45 37
29 27 24 22 21 20 18 18 19 19 20 22 21 19 18 17 15 14 15 15 15 16 15 14 13 12 11 10 9 8 8 8 7 7 6 6 7 8 8 9 10 11 13 15 16 17 18 20 22 24 25 27 27 28 28 29 29 30 30 31 32 33 34 34 36 37 38 40 41 42 44 45 47 48 50 50 50 54 58 62 63 57 47 42 41
30 27 24 23 23 20 19 19 19 19 21 22 20 19 18 17 16 15 15 17 17 17 15 14 13 12 11 10 9 8 8 8 6 6 5 5 6 6 7 8 9 11 13 14 15 16 18 20 23 24 25 27 28 29 29 29 30 30 31 32 33 34 36 37 37 38 38 39 40 41 43 45 47 49 51 50 50 53 58 61 61 54 44 41 43
29 26 24 23 22 19 19 19 17 18 21 22 20 19 19 18 17 16 17 18 18 17 16 15 13 12 11 9 8 8 8 7 6 5 4 4 4 5 6 7 9 11 12 13 15 16 19 21 23 24 25 27 28 29 30 30 30 31 32 33 33 35 37 39 40 40 40 40 41 43 44 46 48 50 52 51 50 52 56 60 59 53 46 44 44
28 25 23 22 21 20 20 18 16 18 22 22 21 20 19 19 18 17 18 18 18 18 17 16 14 12 11 9 8 8 8 6 5 4 3 3 3 4 5 7 9 10 12 13 15 17 19 21 22 23 24 26 27 28 29 30 30 31 32 33 35 36 37 38 39 40 41 42 43 44 46 47 49 50 52 52 51 52 55 58 58 53 48 45 45
28 26 24 24 24 23 22 19 17 18 21 23 23 21 20 20 19 18 18 18 18 19 18 16 14 12 10 9 9 9 8 6 4 3 3 2 3 3 5 7 8 9 11 13 15 17 18 20 21 22 23 25 26 27 29 30 30 31 32 33 35 36 37 37 38 39 40 41 42 44 46 48 49 51 53 54 53 52 54 56 56 52 47 45 45
29 29 28 27 27 24 22 18 16 17 21 24 23 22 21 20 20 19 19 19 19 19 18 16 14 12 10 10 9 9 7 5 5 4 3 3 2 3 5 6 8 9 11 13 14 16 17 18 20 21 23 24 25 27 28 29 30 31 32 33 33 34 35 36 37 38 40 41 43 44 46 49 51 52 54 55 54 52 52 54 54 51 46 44 44
28 27 28 28 27 23 20 16 15 17 21 24 24 23 22 21 20 20 20 20 20 20 18 16 14 12 11 10 10 8 7 6 6 5 4 3 2 3 5 6 7 9 11 12 14 15 16 17 19 21 22 24 25 26 27 28 30 31 31 32 32 33 34 35 36 37 39 41 43 44 47 49 52 53 54 56 56 53 50 50 51 50 47 44 42
26 27 29 28 25 22 18 15 15 17 21 24 25 24 23 22 21 21 20 21 21 20 18 16 14 12 12 11 10 9 8 8 7 6 5 4 3 3 4 6 7 8 10 12 13 14 15 16 18 20 22 23 24 25 27 28 29 30 31 32 32 33 33 34 36 37 39 41 43 45 46 48 50 52 54 55 55 53 49 46 47 47 45 43 43
27 29 29 26 23 21 17 15 16 19 22 25 26 24 23 22 21 21 21 22 22 20 19 16 14 14 13 12 11 10 9 9 9 7 6 4 3 4 5 6 7 8 9 11 13 14 15 16 18 19 21 22 24 25 26 27 28 29 31 31 32 33 33 34 36 37 39 40 42 44 46 47 48 50 51 51 52 53 51 47 46 45 42 41 41
26 27 26 23 22 20 17 17 19 20 22 25 26 25 24 23 22 22 22 22 22 21 19 17 16 15 14 13 12 12 11 11 10 8 7 5 4 4 5 5 7 8 9 11 12 14 15 16 17 19 21 22 23 24 25 26 27 28 29 30 31 32 34 35 36 38 39 40 41 43 45 45 46 47 48 49 51 53 54 52 49 47 44 43 42
25 25 24 24 24 23 20 20 21 21 23 26 27 26 25 24 23 24 24 23 22 21 19 18 16 16 15 14 13 13 13 12 11 9 7 6 5 5 5 5 6 8 9 11 12 14 15 16 17 19 20 22 23 24 25 26 26 27 27 29 30 31 33 34 36 37 38 39 40 41 43 44 45 46 48 50 51 52 54 54 52 50 47 45 44
25 25 24 24 26 25 22 20 19 21 23 26 28 27 25 24 24 25 25 23 22 21 19 18 17 17 16 15 14 14 14 13 11 10 8 6 6 5 5 5 6 7 9 11 12 14 15 16 17 18 20 21 23 24 24 25 26 26 26 27 28 29 30 32 33 34 36 37 39 40 41 43 44 46 47 49 50 51 53 54 53 51 48 46 46
24 25 26 27 27 25 21 18 18 20 24 27 29 28 26 24 25 26 26 24 23 22 20 19 19 19 17 16 16 16 16 14 12 10 8 7 6 5 5 5 6 7 9 11 12 14 15 16 17 18 19 20 22 22 23 24 24 25 25 26 27 28 29 30 32 33 35 37 38 39 41 42 44 45 46 48 49 50 51 53 54 53 50 48 47
26 27 28 29 28 25 21 19 19 22 25 29 30 28 26 26 27 28 27 25 25 24 22 20 20 20 18 18 18 18 17 15 13 11 9 8 7 6 5 6 6 8 9 11 12 14 15 16 17 18 19 20 21 22 23 23 23 24 25 26 26 27 28 30 31 32 34 36 37 38 40 41 43 45 46 48 49 49 50 51 52 53 53 51 49
29 29 29 29 28 24 20 17 18 22 26 30 30 28 26 27 30 30 27 26 25 24 22 21 21 21 19 19 20 20 18 15 13 12 10 8 8 7 6 6 7 8 9 11 12 14 15 16 17 18 19 20 21 22 23 24 24 24 25 26 26 27 28 29 30 31 32 34 35 36 38 40 42 44 45 47 48 48 49 49 50 51 52 53 51
27 27 28 29 25 20 17 16 17 22 27 31 30 28 27 29 31 30 28 27 25 24 23 23 23 22 21 21 21 20 19 16 14 12 11 9 9 8 7 7 8 9 10 11 13 14 15 16 17 18 19 21 22 23 24 25 26 26 26 26 26 27 28 28 30 31 32 32 34 35 36 38 39 41 43 45 46 48 48 49 50 50 51 51 51
25 26 29 29 23 18 17 17 17 22 28 31 30 28 29 30 31 30 28 27 26 25 24 23 23 24 23 23 23 22 19 17 15 13 12 11 10 8 8 8 8 9 10 12 13 14 15 16 18 19 20 21 22 23 25 26 27 27 27 27 27 27 27 28 28 29 30 31 32 33 35 36 37 39 41 42 44 46 47 48 48 49 49 50 51
26 29 32 29 23 19 18 18 18 22 28 31 30 29 30 30 30 29 28 27 27 26 23 21 22 24 25 25 25 23 20 18 16 14 13 12 11 9 9 9 9 10 11 12 14 15 16 17 18 19 20 21 22 23 25 26 27 27 28 27 27 26 26 27 27 27 28 29 30 31 33 34 36 37 39 40 42 43 45 46 47 48 48 49 49
28 30 32 27 21 18 17 17 18 23 28 32 32 32 31 31 30 29 28 26 26 26 22 19 21 24 26 26 25 23 20 18 17 15 14 13 12 10 10 10 10 11 12 13 14 15 16 17 19 19 21 22 22 23 24 25 26 27 27 28 27 26 26 26 25 26 26 27 28 29 31 32 34 35 37 38 40 42 43 44 46 46 47 47 47
29 30 29 25 21 18 16 16 19 24 30 34 34 32 30 30 30 30 28 26 27 27 25 23 23 25 27 27 26 23 21 19 17 16 15 14 13 12 11 11 11 12 13 14 15 16 17 18 19 20 21 22 23 23 24 25 26 26 27 28 28 27 27 26 26 25 26 26 27 28 29 30 31 33 34 35 37 39 41 42 43 44 45 45 45
29 29 28 27 24 19 16 18 22 27 32 34 32 29 28 30 31 30 28 27 28 28 27 26 27 28 28 28 26 24 22 20 18 17 16 15 14 13 12 13 13 13 14 15 16 16 17 18 19 21 22 23 23 24 24 25 26 26 27 28 29 29 28 28 27 27 26 26 26 27 28 29 30 31 32 33 34 35 37 38 40 41 42 43 43
28 27 27 29 26 21 17 20 24 29 33 33 31 29 29 30 30 29 28 29 29 27 27 28 28 28 28 27 26 24 23 21 19 17 16 16 15 14 14 14 14 15 16 17 17 18 18 19 20 22 23 24 24 24 25 25 26 27 27 28 28 29 29 29 28 28 28 27 27 27 27 27 28 29 30 31 32 33 34 35 37 38 39 40 41
28 27 27 28 26 21 18 21 25 30 32 32 32 31 31 31 31 31 31 30 29 27 27 28 29 28 27 28 27 25 23 21 19 17 17 17 16 16 15 15 15 16 17 18 19 20 20 21 21 22 23 25 25 26 26 26 27 28 28 28 28 28 28 29 29 28 28 28 28 27 27 27 27 28 29 30 30 31 32 32 34 36 37 38 39
28 28 28 29 26 22 20 22 25 28 30 30 30 30 31 31 31 31 30 30 28 27 26 27 28 27 27 28 28 26 23 21 19 19 20 19 17 17 17 17 17 17 18 18 20 21 21 22 22 23 24 25 26 26 27 27 27 28 28 28 28 28 28 28 28 28 28 28 28 28 28 28 27 27 27 27 28 29 30 30 31 33 34 35 36
28 29 30 30 28 25 22 23 26 28 28 29 29 29 30 31 30 29 30 30 29 27 27 27 28 27 27 28 27 26 24 22 21 21 21 20 18 18 18 18 19 19 19 20 21 21 22 22 23 24 25 26 26 27 27 27 28 27 27 28 28 29 29 29 29 29 29 29 28 28 28 28 27 27 26 26 26 27 28 28 28 29 30 31 32
29 30 31 30 29 27 24 24 26 28 29 30 30 29 30 31 31 30 30 30 29 28 27 27 27 27 27 27 27 27 25 23 22 21 21 20 20 20 20 20 21 21 21 22 22 22 23 23 24 25 25 26 27 27 27 27 27 27 27 28 28 28 29 29 30 30 30 30 29 29 28 28 27 27 26 25 25 25 26 27 26 26 27 27 28
30 31 30 28 27 26 24 23 25 28 30 30 31 31 31 32 32 31 30 29 29 28 27 26 26 26 26 27 27 27 26 24 23 22 22 22 22 22 22 22 23 23 23 23 23 23 24 24 25 25 26 26 26 27 27 27 27 27 27 28 27 27 28 29 29 30 31 31 31 29 28 27 27 26 25 25 24 23 24 25 26 25 25 25 25
23 24 24 23 24 25 24 24 26 29 31 31 31 32 33 33 33 31 29 28 29 28 28 27 26 25 25 26 27 27 26 26 25 23 23 23 23 23 24 24 24 24 24 24 24 24 25 25 26 26 26 25 25 26 26 26 27 27 27 27 26 26 26 27 28 29 30 31 31 30 29 27 26 25 24 24 23 23 22 23 25 25 24 24 24
12 13 16 19 21 23 25 26 27 29 31 32 33 33 34 33 32 31 29 28 27 28 28 27 26 24 23 25 26 27 27 26 25 24 24 25 25 25 25 25 25 24 24 24 25 25 26 26 26 26 25 24 24 24 25 25 25 26 25 25 25 25 25 26 28 29 29 30 31 31 30 29 27 25 24 23 23 23 22 22 23 24 25 24 24
12 13 14 16 18 20 22 24 25 27 29 33 34 35 35 35 34 32 30 27 27 28 28 26 24 23 24 24 26 26 27 27 26 26 26 26 26 26 26 25 25 25 25 25 25 26 26 26 26 25 24 24 23 23 23 24 24 24 24 24 24 24 24 25 27 28 29 29 30 30 30 29 27 25 24 23 23 23 22 22 22 23 24 25 24
15 16 16 17 18 19 20 22 24 26 28 32 36 38 39 39 36 33 30 28 27 27 27 25 24 24 24 25 26 26 26 27 27 27 26 26 27 27 27 26 26 26 25 25 26 26 26 26 26 25 24 23 23 23 23 23 22 22 22 22 23 23 24 24 26 27 26 26 26 26 27 27 26 25 23 23 24 24 23 23 23 23 23 24 24
19 20 20 19 19 20 21 22 24 26 28 31 36 40 41 40 37 33 29 27 27 27 25 23 22 22 23 24 25 26 26 27 27 27 27 27 27 27 27 27 26 26 26 26 26 27 27 26 26 25 24 23 23 23 23 23 22 22 22 21 22 22 22 23 24 24 23 21 21 22 23 24 24 24 24 23 23 24 24 23 23 23 23 23 24
22 23 24 22 20 21 21 22 23 25 27 30 35 39 40 39 36 32 28 26 26 25 23 22 21 21 22 23 25 26 26 27 26 26 26 27 27 27 27 27 27 27 27 27 27 27 27 26 26 25 24 23 22 22 23 23 23 22 22 22 22 22 21 21 21 20 19 18 18 19 20 22 23 23 24 24 23 24 24 24 24 24 24 24 24
21 24 24 23 21 21 22 22 23 25 25 27 31 34 36 36 35 31 26 24 24 23 21 20 20 21 22 23 24 25 26 26 26 26 26 26 27 27 27 27 27 27 27 27 27 27 27 26 26 25 24 23 22 23 23 24 24 23 23 22 22 22 22 21 20 18 17 17 18 18 20 21 22 23 23 24 24 24 24 24 25 25 24 24 24
20 22 23 21 20 21 22 22 23 24 24 25 27 31 33 34 32 28 24 24 24 22 20 20 21 22 23 23 24 24 25 25 26 26 26 26 27 27 27 28 28 27 28 28 28 27 27 26 25 24 23 22 22 23 24 25 25 25 24 23 23 23 23 23 22 20 18 18 18 19 19 20 21 22 23 24 25 24 24 25 25 25 25 24 24
Wind_Direction
211 212 214 217 220 222 228 242 257 270 276 278 277 277 278 279 278 278 277 278 277 277 277 278 278 278 278 280 285 290 294 298 300 302 302 303 305 307 309 311 314 317 319 322 324 327 329 328 328 328 330 332 335 336 337 337 337 337 336 335 334 333 333 332 331 331 332 331 329 329 328 327 327 325 322 319 317 313 310 307 304 301 298 295 292
209 210 213 216 217 221 233 250 266 276 281 283 281 279 280 280 279 277 275 273 272 272 273 273 272 274 278 284 289 293 296 297 299 300 301 303 305 307 311 314 316 318 321 324 326 328 328 327 328 330 333 335 336 337 337 337 337 337 336 335 335 335 333 332 331 331 332 333 332 331 331 330 329 328 326 323 321 318 315 312 308 305 301 298 294
210 213 215 216 218 227 242 258 269 278 281 284 284 280 278 277 274 271 268 267 267 267 268 267 268 273 279 285 289 291 293 294 296 299 300 303 306 310 314 316 316 319 323 326 328 327 327 328 330 333 335 336 337 338 338 339 338 337 337 337 336 336 335 333 333 333 333 335 335 334 333 333 332 331 328 326 324 323 320 318 314 310 306 302 297
214 215 216 217 223 235 251 261 268 274 277 281 281 276 272 270 267 264 262 261 261 261 261 263 267 273 278 282 285 287 289 291 294 297 301 305 309 313 316 316 316 321 326 328 327 326 328 331 333 335 336 337 339 340 339 339 339 339 339 338 337 337 337 336 337 337 336 336 337 337 336 335 334 333 330 328 327 326 323 321 318 313 309 306 303
214 215 216 221 231 244 255 260 266 271 274 275 272 267 264 263 259 256 255 255 254 254 257 262 267 272 276 279 280 283 286 289 294 298 303 308 311 314 315 316 318 324 327 326 325 327 330 333 335 336 338 340 341 341 340 339 340 341 340 339 338 339 339 339 340 340 339 338 338 338 338 336 335 335 333 330 328 327 324 322 320 317 313 310 309
213 215 217 226 238 247 252 258 266 269 271 269 264 259 256 254 251 250 251 249 248 251 256 262 266 270 274 275 276 280 284 290 296 301 305 309 311 313 315 317 321 325 326 325 327 331 333 334 337 338 340 342 342 341 342 343 342 341 340 340 340 341 342 342 342 342 342 341 340 339 339 339 337 336 335 333 331 329 326 323 323 323 321 318 317
214 216 220 229 237 243 248 258 266 267 266 261 257 253 248 245 244 246 246 244 245 251 258 262 266 268 270 271 273 279 286 292 298 303 307 310 311 314 318 320 321 323 325 327 330 333 335 337 339 341 342 342 342 343 345 345 344 342 342 342 343 344 344 343 343 343 343 343 342 340 340 340 339 338 336 335 333 332 330 328 328 331 331 329 328
217 217 220 226 231 238 248 259 264 265 262 255 250 246 242 239 239 240 241 243 247 254 259 262 265 265 265 267 271 280 287 293 299 303 306 309 312 317 320 319 320 323 326 330 333 336 338 341 342 343 344 343 345 347 348 346 345 345 345 345 345 345 345 345 344 344 344 344 343 342 341 342 341 339 338 337 335 335 334 333 335 336 335 335 336
217 218 220 225 230 239 250 258 263 264 258 250 244 239 235 235 236 236 239 243 250 256 259 260 261 259 260 264 272 281 288 294 299 304 307 310 314 320 321 319 321 326 329 333 337 339 341 344 344 344 346 347 349 350 350 348 347 348 348 347 346 345 345 346 346 345 345 345 345 343 342 343 344 341 340 339 338 337 337 336 338 339 337 336 338
217 218 222 226 233 242 252 260 263 261 253 244 237 233 231 233 235 235 238 244 250 254 256 255 253 252 256 264 274 282 288 295 299 303 307 311 317 320 320 321 325 329 334 338 341 342 343 345 345 347 350 352 353 352 351 351 351 351 350 348 346 346 346 347 347 346 346 346 346 345 344 344 345 343 341 341 339 338 338 338 339 340 339 336 336
220 221 225 231 237 244 253 262 264 258 248 238 232 229 229 232 234 234 238 244 249 251 251 248 245 248 256 266 275 281 288 295 299 302 307 313 318 320 320 325 330 334 338 341 342 343 345 346 347 350 353 355 354 353 353 354 354 353 351 350 349 348 348 348 348 347 346 346 347 347 345 345 346 345 342 341 341 340 339 339 339 338 338 336 336
224 226 230 234 237 242 254 263 264 257 245 235 230 228 227 229 232 234 237 242 245 244 243 241 242 249 259 266 273 281 288 294 297 302 308 314 318 320 324 330 334 337 341 343 344 344 346 348 349 352 355 356 356 356 357 357 356 354 353 352 352 352 350 349 348 347 346 347 349 349 347 345 346 346 345 343 341 340 339 338 338 336 335 336 336
230 233 235 235 236 242 255 264 265 256 242 232 228 226 225 228 230 233 236 239 241 241 238 237 243 252 259 264 273 281 287 293 297 302 309 314 319 323 329 335 337 340 344 345 345 347 349 351 352 354 356 356 357 358 359 358 356 355 354 355 355 354 353 351 348 347 348 349 350 350 348 346 346 347 346 343 341 340 339 338 337 334 333 334 335
233 236 234 234 236 243 254 262 264 257 242 231 227 225 225 227 229 232 235 236 237 236 234 237 244 251 256 262 272 280 286 292 296 302 309 314 320 327 334 338 340 344 347 347 349 351 353 354 355 357 357 358 359 359 358 357 356 355 356 357 357 356 354 352 350 350 351 351 351 350 349 347 348 348 347 344 341 339 338 337 336 334 333 334 337
234 236 234 235 237 242 251 259 261 256 243 231 226 224 225 228 229 231 234 235 234 234 235 240 245 247 252 262 272 280 284 290 294 300 308 314 323 333 339 342 345 348 350 352 355 356 356 357 359 360 0 1 1 359 357 357 356 356 357 358 358 357 357 355 354 354 354 353 352 351 350 350 350 349 348 345 341 338 337 336 335 335 334 337 346
231 235 237 239 238 238 246 257 260 255 242 229 224 224 226 229 230 230 233 234 233 234 238 242 242 243 252 263 271 278 281 285 291 298 307 316 328 340 344 346 349 353 356 359 0 0 1 2 3 4 4 3 1 359 357 356 355 355 357 358 357 359 360 359 358 357 355 355 354 352 351 352 352 352 350 346 342 339 338 338 338 339 340 345 355
226 231 237 239 235 235 245 257 258 252 238 227 223 224 227 230 230 229 231 231 231 234 237 237 237 242 253 261 267 272 276 280 288 296 306 321 337 344 345 349 355 0 4 6 5 5 6 8 8 8 7 4 1 359 358 356 355 354 356 357 357 358 1 2 2 360 357 356 355 353 353 353 354 355 353 349 344 341 341 343 343 344 346 349 353
223 228 235 236 232 234 245 252 253 246 234 225 222 223 227 230 228 226 228 229 230 234 234 232 234 242 250 255 260 265 271 276 283 293 308 328 341 342 346 354 3 8 11 9 7 8 10 11 11 10 8 5 2 0 359 356 354 354 356 357 358 358 0 3 3 2 359 357 356 356 356 356 357 358 357 353 347 344 345 346 346 347 349 349 348
223 226 233 235 232 234 240 245 249 244 232 224 221 223 226 228 226 223 225 229 232 233 230 227 232 240 244 248 254 259 265 269 276 290 308 328 336 338 348 2 9 13 13 9 7 9 11 12 12 9 7 6 3 1 359 356 354 355 356 357 358 359 2 3 3 2 0 358 357 358 359 360 360 1 1 357 351 348 348 348 350 351 349 347 347
219 224 231 234 233 234 235 241 249 244 232 224 221 222 224 226 225 224 226 230 233 231 228 227 230 236 239 241 247 253 257 259 266 279 295 313 322 335 353 7 14 15 12 8 7 9 12 12 10 7 6 5 3 1 359 357 356 356 357 357 358 360 3 4 3 2 1 360 359 359 360 2 2 3 4 1 356 353 352 352 354 354 350 348 348
216 222 225 229 232 231 230 235 243 239 230 225 222 222 223 224 225 224 226 229 230 228 227 229 230 232 234 238 242 247 248 250 254 258 263 280 304 336 355 7 15 14 9 5 5 8 11 9 6 4 3 3 2 1 359 357 357 357 357 358 359 0 2 3 3 3 2 1 1 0 1 3 4 5 6 5 1 357 356 357 357 356 354 351 348
224 227 225 229 232 227 224 229 237 236 230 225 223 223 223 223 224 225 225 226 226 225 227 229 229 229 232 235 239 241 241 240 242 242 246 263 295 338 356 5 12 11 6 3 3 5 7 5 2 360 359 359 360 359 358 357 357 357 357 358 359 359 1 2 2 3 3 3 3 3 3 4 5 6 8 8 5 1 360 0 359 358 358 355 350
231 227 227 231 229 223 223 229 236 237 231 226 224 224 224 223 224 227 226 223 222 224 226 228 227 227 229 232 233 234 233 231 231 233 239 254 291 335 353 0 5 6 2 358 358 1 2 1 359 356 355 356 356 356 356 356 356 357 357 357 357 358 360 1 1 3 4 5 5 6 6 6 6 7 8 9 8 5 2 1 2 1 0 357 353
220 219 229 232 223 217 222 231 237 239 233 226 224 225 224 223 224 226 225 221 221 223 226 227 226 225 226 227 226 224 224 225 227 228 235 251 283 322 342 352 356 359 357 352 352 356 357 357 356 353 351 352 352 353 353 354 355 355 355 356 356 356 358 360 1 3 5 6 7 8 9 9 7 7 8 9 9 7 5 4 5 7 5 2 359
214 226 234 230 219 219 226 234 241 242 235 228 225 224 226 226 225 224 221 218 221 224 224 224 223 222 224 223 220 218 217 220 225 228 233 247 276 308 329 343 348 350 351 349 349 351 353 354 354 351 349 349 349 350 350 350 352 354 353 354 354 354 357 359 1 3 5 7 9 10 11 11 10 8 8 9 9 9 8 7 9 11 11 9 7
223 234 229 220 221 228 234 239 242 241 235 228 224 223 225 226 224 221 217 217 221 224 223 222 219 219 220 219 216 214 215 218 224 229 235 248 271 298 315 331 339 343 346 347 348 348 349 352 352 350 347 346 346 347 347 348 350 351 351 351 352 353 355 358 0 2 4 7 9 11 12 12 12 9 8 9 10 10 10 9 10 12 13 12 13
232 232 221 222 228 231 232 236 240 240 236 229 224 222 223 224 220 215 213 216 221 224 223 222 219 218 218 216 214 214 215 219 224 229 236 250 267 288 306 321 333 339 344 346 347 347 348 350 350 348 345 344 345 346 346 346 347 348 348 348 350 352 355 357 359 0 2 6 9 11 12 13 13 12 10 10 11 12 12 11 11 12 14 14 15
231 225 222 231 233 230 230 234 238 241 239 231 224 223 225 224 218 211 211 215 221 223 222 222 221 218 215 213 215 217 217 219 224 229 238 250 263 280 299 313 327 337 342 345 346 346 346 346 346 346 345 344 344 344 344 343 343 344 346 347 348 351 353 355 357 359 1 5 8 10 12 13 13 14 13 11 12 13 13 13 12 13 15 16 17
227 222 226 233 232 229 230 236 244 248 241 230 224 222 224 222 215 210 211 213 216 218 217 218 220 217 212 211 216 218 217 219 223 228 236 248 259 273 290 305 321 333 338 340 340 340 341 341 342 343 343 342 342 341 341 341 342 342 344 345 346 349 351 353 355 358 360 3 6 8 11 12 13 14 15 13 13 13 13 14 13 14 16 18 20
220 222 230 233 229 227 229 234 246 251 241 229 223 222 221 217 212 210 212 213 215 215 212 213 216 215 211 214 218 219 220 221 224 230 236 245 254 265 280 299 317 327 331 332 333 333 335 337 337 338 339 339 339 339 339 340 342 343 344 345 346 348 350 351 353 356 358 1 3 5 8 10 12 13 14 15 14 14 14 15 14 14 15 18 21
220 226 233 233 229 229 229 231 241 246 237 227 222 221 221 216 212 212 213 214 216 215 212 212 215 215 215 218 220 221 222 223 226 232 237 242 251 261 276 294 309 319 323 325 327 327 330 333 333 335 337 337 337 337 338 339 342 344 345 346 346 348 349 349 351 354 356 358 360 2 5 9 10 12 13 14 15 14 14 15 15 15 16 18 20
223 226 235 237 232 229 229 232 241 243 234 225 221 220 218 215 212 212 214 216 217 214 210 211 215 217 219 222 222 222 223 223 226 232 235 239 247 258 274 290 302 313 317 319 321 323 326 330 331 333 335 336 336 336 337 338 339 341 344 346 346 347 348 349 350 352 353 355 356 358 1 5 8 11 12 12 13 14 14 15 16 16 17 17 20
226 224 233 236 232 228 231 236 245 245 234 224 222 221 218 215 212 211 214 217 217 212 209 214 220 221 221 223 223 223 224 225 228 231 234 239 246 257 271 284 295 305 311 313 316 319 323 327 329 331 333 334 334 335 335 336 336 338 340 343 345 346 347 348 349 349 350 351 352 354 357 0 4 8 10 11 12 13 14 15 16 17 17 17 18
226 226 233 232 225 226 232 234 241 242 233 224 222 221 218 215 212 211 214 217 215 210 210 219 223 220 220 223 225 225 225 227 229 231 234 241 248 256 267 278 289 298 304 308 312 317 321 324 326 328 329 331 332 333 333 333 334 334 336 338 340 343 344 345 346 346 346 347 349 351 353 356 359 2 6 9 11 12 13 14 15 16 18 18 17
223 232 240 236 224 224 230 232 238 240 231 224 222 220 217 213 210 211 215 216 212 209 212 218 218 218 221 224 226 226 227 229 231 232 235 242 249 256 266 276 284 292 299 305 309 314 318 320 323 325 326 327 329 330 330 330 329 330 331 332 334 337 339 340 342 343 344 345 346 348 350 352 355 358 1 5 8 10 11 13 15 15 17 18 18
226 239 245 236 225 225 230 238 245 240 230 225 223 221 216 211 209 213 216 214 209 208 211 213 215 219 224 225 224 226 228 230 232 234 237 243 251 258 267 276 282 289 297 302 307 310 313 317 320 322 323 325 326 327 328 327 325 325 325 326 328 330 333 335 336 338 340 342 343 344 347 348 351 354 357 0 4 7 9 11 13 14 15 17 18
230 242 243 232 223 222 230 240 242 234 227 226 225 221 215 211 211 214 215 211 208 210 213 212 213 219 224 225 224 226 229 231 233 236 238 245 252 258 267 275 282 290 296 300 304 308 311 314 317 319 320 322 324 325 326 325 322 320 320 320 323 325 327 329 331 333 335 338 340 341 343 345 347 350 353 356 359 3 6 9 11 13 14 15 16
230 240 241 234 226 220 225 236 236 228 224 223 221 217 214 212 213 214 213 210 211 215 217 215 215 219 224 226 226 227 229 231 234 237 240 245 251 257 265 273 281 288 293 298 303 308 311 313 315 316 317 319 321 323 323 322 319 317 315 316 319 321 323 325 327 329 330 333 335 337 339 341 343 346 349 353 355 358 1 5 8 10 12 14 15
227 231 237 238 230 221 223 231 230 224 221 219 218 215 212 210 212 214 213 212 214 218 220 219 220 222 225 228 229 229 230 232 234 237 241 244 248 255 263 271 278 285 291 296 301 305 308 310 311 313 314 316 318 319 320 319 317 315 314 315 316 318 320 321 323 325 326 328 330 333 335 337 340 343 346 349 351 354 356 0 4 7 9 12 14
224 228 235 237 230 222 222 226 225 222 221 222 221 217 211 209 212 214 213 214 217 220 221 222 224 226 229 232 233 233 234 235 235 237 241 244 248 255 262 269 276 282 288 293 296 299 302 305 308 310 311 312 314 316 317 316 315 313 313 314 314 316 318 319 320 321 323 325 327 330 331 334 336 340 343 346 348 349 352 356 359 2 5 8 11
225 233 241 240 231 223 220 219 218 218 218 220 221 219 214 212 212 212 213 215 219 221 221 223 228 232 234 235 236 236 237 237 237 238 243 247 252 256 262 267 274 280 286 290 292 295 298 302 305 307 308 309 311 313 315 314 312 311 311 312 313 315 316 318 319 320 321 323 325 327 329 330 332 335 338 342 346 348 348 350 354 357 0 3 7
229 238 247 245 235 227 223 218 215 214 215 216 218 217 215 214 213 212 214 217 220 223 225 229 233 236 237 237 237 238 239 239 240 241 244 248 253 256 261 267 273 279 284 288 291 294 297 300 302 304 305 306 309 311 312 311 310 310 311 312 313 315 316 317 318 320 322 323 325 326 327 327 328 331 334 338 342 345 346 346 347 351 354 357 1
234 242 250 250 241 235 234 228 219 215 215 216 217 215 213 213 214 214 215 218 221 225 229 232 235 237 239 240 240 239 240 242 243 244 245 248 251 255 259 265 271 276 282 287 291 293 296 298 300 301 302 305 307 309 308 308 308 308 310 311 313 315 316 317 318 320 323 324 326 328 328 327 325 326 329 333 337 341 343 343 343 345 348 351 355
248 254 260 260 253 249 247 241 232 225 220 217 216 214 213 214 215 215 216 219 222 226 229 230 231 235 241 244 243 242 242 243 245 245 246 248 251 254 258 263 269 275 281 285 288 290 293 295 297 299 301 303 304 304 304 304 306 307 309 311 313 315 316 318 319 321 323 325 326 328 331 330 327 325 325 327 331 334 338 340 340 340 342 345 347
271 274 274 272 265 258 253 249 245 238 228 220 215 214 214 215 216 217 217 219 223 227 229 229 230 235 243 246 245 243 243 244 246 247 248 250 252 255 258 263 268 274 279 282 284 287 290 292 295 297 298 299 299 299 300 302 304 306 308 310 312 315 316 318 320 322 324 325 326 327 330 331 330 327 323 323 325 328 331 336 338 338 339 340 341
275 276 276 275 272 267 261 255 253 248 237 223 215 214 215 215 216 216 216 217 221 227 229 229 233 240 246 246 244 243 242 243 245 246 247 250 252 256 260 264 268 272 276 279 281 284 288 290 292 293 294 294 294 296 298 300 301 304 307 309 312 315 317 318 320 323 324 325 326 326 329 330 331 328 324 322 323 325 326 329 333 335 336 336 337
270 272 271 269 269 269 264 259 256 254 243 228 217 214 215 216 216 215 214 214 219 224 226 230 238 245 246 243 241 241 241 242 243 244 246 250 253 257 260 263 267 271 274 277 280 283 285 287 288 289 289 290 291 293 295 298 300 303 306 308 311 313 316 318 321 323 325 327 328 330 332 334 334 332 327 323 322 323 324 324 326 329 331 332 332
263 267 268 267 265 263 260 257 256 254 246 234 224 219 217 217 216 212 209 212 217 221 224 231 240 244 243 240 239 239 240 241 243 244 247 250 253 257 260 263 266 270 273 275 278 281 282 283 285 285 285 286 288 291 294 297 300 303 305 307 308 310 314 318 322 325 328 331 334 337 339 341 342 340 336 331 327 325 324 323 323 323 325 326 327
264 266 267 267 264 261 259 258 259 258 253 243 233 225 221 219 214 209 207 212 216 219 225 235 242 243 241 240 239 239 240 242 244 246 248 251 254 257 260 263 266 269 272 274 276 278 279 280 281 281 282 283 285 289 293 296 299 302 304 305 305 307 310 314 319 324 329 333 337 340 341 343 344 344 341 339 336 333 330 328 325 323 322 322 322
269 270 270 267 262 259 259 260 261 262 258 248 236 228 223 217 211 207 209 214 216 220 231 242 245 244 242 241 240 242 243 245 247 248 250 253 255 258 261 264 267 269 271 273 274 275 276 276 276 277 278 281 284 288 291 294 297 300 302 303 303 303 304 307 312 317 323 329 334 338 340 340 340 340 340 339 339 338 337 334 332 328 325 321 319
272 274 273 267 259 257 260 262 262 261 256 246 232 223 218 213 209 208 212 216 217 225 239 247 246 244 242 241 243 245 246 247 249 250 252 254 257 260 262 264 266 267 269 271 272 273 274 274 274 275 277 280 283 286 288 291 295 297 300 301 302 300 299 299 300 304 309 316 323 330 335 335 334 336 336 336 335 335 336 336 335 333 331 327 322
Height
3137 3138 3140 3141 3142 3143 3143 3144 3144 3145 3145 3145 3145 3146 3146 3146 3146 3146 3146 3145 3145 3144 3144 3144 3144 3144 3144 3143 3143 3143 3142 3142 3141 3141 3141 3140 3139 3138 3137 3136 3134 3133 3131 3129 3128 3126 3124 3123 3121 3119 3117 3115 3113 3110 3108 3105 3102 3099 3096 3093 3090 3086 3083 3080 3076 3075 3074 3070 3065 3061 3057 3053 3050 3047 3044 3042 3040 3037 3034 3030 3026 3023 3020 3018 3016
3135 3137 3138 3139 3140 3141 3142 3142 3143 3143 3144 3144 3144 3144 3144 3144 3144 3144 3144 3144 3143 3143 3143 3143 3143 3143 3143 3142 3141 3141 3141 3141 3140 3140 3139 3138 3138 3137 3135 3134 3133 3131 3130 3128 3126 3125 3123 3121 3120 3118 3116 3114 3111 3109 3107 3104 3101 3098 3095 3092 3089 3085 3081 3078 3074 3070 3068 3066 3062 3058 3055 3050 3045 3041 3037 3033 3032 3030 3028 3025 3022 3018 3015 3012 3010
3134 3135 3136 3137 3138 3139 3140 3141 3141 3142 3142 3143 3143 3143 3143 3143 3143 3143 3143 3142 3142 3142 3142 3142 3142 3142 3141 3141 3140 3140 3140 3140 3139 3139 3138 3137 3137 3136 3134 3133 3132 3130 3129 3127 3125 3124 3122 3120 3119 3117 3114 3112 3110 3108 3105 3103 3100 3097 3094 3091 3088 3084 3080 3076 3072 3068 3064 3062 3058 3054 3050 3046 3042 3037 3032 3028 3025 3023 3021 3019 3017 3014 3011 3008 3005
3132 3133 3134 3136 3137 3138 3139 3139 3140 3140 3141 3141 3142 3142 3142 3142 3142 3141 3141 3141 3141 3141 3141 3141 3140 3140 3140 3139 3139 3139 3139 3139 3138 3138 3137 3136 3135 3135 3133 3132 3130 3129 3128 3126 3124 3123 3121 3119 3117 3115 3113 3111 3109 3106 3103 3101 3098 3095 3092 3089 3086 3082 3079 3075 3070 3066 3062 3058 3055 3051 3047 3042 3038 3033 3028 3023 3020 3017 3015 3013 3011 3008 3006 3004 3001
3130 3131 3133 3134 3136 3137 3137 3138 3138 3139 3139 3140 3140 3140 3140 3140 3140 3140 3140 3140 3140 3140 3140 3139 3139 3139 3139 3138 3138 3138 3138 3138 3137 3137 3136 3135 3135 3134 3132 3131 3129 3128 3127 3125 3123 3122 3120 3118 3116 3114 3112 3110 3107 3105 3102 3099 3097 3094 3090 3087 3084 3080 3077 3073 3069 3065 3060 3056 3052 3048 3044 3039 3034 3030 3024 3018 3014 3012 3009 3007 3005 3002 3000 2999 2997
3129 3130 3132 3133 3135 3136 3136 3136 3137 3137 3138 3138 3139 3139 3139 3139 3139 3138 3139 3139 3139 3139 3138 3138 3138 3138 3137 3137 3137 3137 3137 3137 3136 3136 3135 3134 3134 3133 3131 3130 3128 3127 3126 3124 3123 3121 3119 3117 3115 3113 3111 3109 3106 3104 3101 3098 3095 3092 3088 3085 3082 3078 3075 3071 3067 3063 3059 3054 3049 3045 3041 3036 3030 3026 3021 3015 3010 3005 3002 3000 3000 2998 2993 2991 2990
3128 3129 3131 3132 3133 3134 3134 3134 3135 3135 3136 3136 3137 3137 3137 3137 3137 3137 3137 3137 3137 3137 3137 3137 3137 3136 3136 3136 3136 3136 3136 3136 3135 3135 3134 3133 3132 3131 3130 3128 3127 3126 3125 3123 3121 3120 3118 3116 3114 3112 3109 3107 3105 3102 3099 3096 3093 3090 3086 3083 3079 3076 3072 3069 3065 3061 3057 3052 3047 3042 3038 3033 3028 3022 3018 3013 3008 3002 2997 2992 2991 2989 2986 2983 2981
3126 3128 3129 3130 3131 3132 3132 3133 3133 3134 3134 3134 3135 3135 3135 3135 3136 3136 3136 3136 3136 3136 3135 3135 3135 3135 3135 3135 3136 3135 3135 3135 3135 3134 3133 3132 3131 3130 3129 3127 3126 3125 3124 3122 3120 3118 3117 3115 3112 3110 3108 3106 3103 3100 3097 3094 3091 3088 3084 3080 3077 3074 3070 3066 3062 3059 3054 3050 3045 3039 3034 3030 3025 3019 3014 3008 3003 2998 2993 2987 2982 2979 2977 2975 2974
3125 3126 3128 3129 3130 3130 3130 3131 3131 3132 3132 3133 3133 3133 3134 3134 3134 3134 3134 3134 3134 3134 3134 3134 3134 3134 3134 3135 3135 3135 3134 3134 3134 3133 3132 3131 3130 3129 3128 3126 3125 3124 3122 3120 3119 3117 3115 3113 3112 3110 3107 3104 3101 3098 3095 3092 3089 3085 3082 3078 3075 3071 3068 3065 3060 3056 3052 3048 3042 3037 3031 3027 3022 3015 3009 3003 2997 2992 2987 2982 2977 2973 2970 2968 2968
3123 3125 3126 3127 3128 3128 3129 3129 3130 3130 3130 3131 3131 3132 3132 3132 3132 3133 3133 3132 3133 3133 3133 3133 3133 3133 3134 3134 3134 3134 3133 3133 3132 3132 3131 3130 3129 3128 3127 3125 3124 3122 3121 3119 3117 3115 3114 3112 3111 3108 3106 3103 3100 3097 3094 3091 3088 3084 3081 3077 3074 3070 3066 3062 3058 3054 3050 3045 3040 3034 3028 3023 3019 3012 3005 3000 2995 2988 2982 2977 2971 2967 2963 2960 2959
3122 3123 3124 3125 3126 3127 3127 3128 3128 3128 3129 3129 3130 3130 3130 3130 3131 3131 3131 3131 3131 3131 3132 3132 3132 3133 3133 3133 3133 3133 3132 3132 3131 3130 3129 3128 3128 3127 3125 3124 3123 3121 3119 3117 3116 3114 3113 3111 3109 3107 3105 3102 3100 3097 3094 3091 3088 3084 3081 3078 3074 3069 3064 3060 3057 3052 3048 3044 3039 3033 3026 3020 3016 3010 3003 2996 2991 2985 2979 2974 2968 2963 2959 2954 2949
3120 3121 3122 3123 3124 3125 3125 3126 3126 3126 3127 3127 3128 3128 3128 3128 3129 3129 3129 3129 3130 3130 3131 3131 3131 3131 3132 3132 3132 3132 3131 3131 3130 3129 3128 3127 3127 3126 3124 3123 3121 3120 3118 3116 3115 3113 3112 3110 3108 3105 3103 3101 3099 3097 3094 3091 3088 3085 3082 3078 3074 3070 3065 3060 3056 3051 3047 3042 3037 3032 3025 3018 3014 3008 3001 2993 2987 2981 2977 2973 2968 2962 2957 2951 2945
3117 3118 3120 3121 3121 3122 3123 3124 3124 3124 3124 3125 3126 3126 3126 3126 3127 3127 3127 3128 3128 3129 3129 3130 3130 3130 3130 3131 3131 3130 3130 3129 3129 3128 3127 3126 3126 3125 3123 3122 3120 3119 3117 3115 3114 3112 3111 3109 3106 3104 3102 3100 3098 3096 3093 3091 3088 3085 3082 3078 3075 3071 3067 3063 3058 3052 3047 3041 3036 3031 3025 3018 3012 3006 3000 2992 2985 2979 2973 2969 2965 2959 2953 2948 2943
3114 3116 3117 3118 3119 3120 3121 3121 3122 3122 3122 3123 3124 3124 3124 3124 3125 3126 3126 3126 3127 3127 3128 3128 3129 3129 3129 3129 3129 3129 3129 3128 3128 3127 3126 3125 3125 3123 3122 3121 3119 3118 3116 3114 3113 3111 3110 3108 3106 3104 3102 3100 3097 3095 3092 3090 3087 3085 3082 3078 3075 3071 3067 3063 3059 3053 3048 3041 3036 3030 3025 3019 3012 3006 3000 2993 2985 2978 2971 2965 2961 2955 2949 2945 2941
3111 3113 3114 3115 3117 3118 3118 3119 3119 3119 3120 3121 3121 3122 3122 3122 3123 3124 3124 3124 3125 3126 3127 3127 3127 3128 3128 3128 3128 3128 3127 3127 3126 3126 3125 3124 3123 3122 3121 3120 3118 3117 3115 3114 3112 3111 3109 3107 3105 3103 3101 3098 3096 3094 3091 3089 3087 3084 3081 3078 3075 3071 3067 3062 3057 3052 3047 3042 3036 3031 3025 3020 3014 3007 3000 2993 2986 2979 2973 2967 2961 2953 2946 2942 2940
3109 3110 3111 3113 3114 3115 3116 3116 3117 3117 3117 3118 3119 3120 3120 3120 3121 3122 3122 3123 3124 3125 3125 3126 3126 3126 3127 3127 3127 3126 3126 3126 3125 3125 3124 3123 3122 3121 3120 3119 3118 3116 3115 3113 3112 3110 3108 3106 3104 3102 3100 3097 3095 3093 3090 3088 3086 3084 3081 3078 3074 3071 3067 3062 3057 3052 3047 3042 3037 3032 3027 3022 3016 3009 3002 2994 2987 2980 2973 2967 2959 2951 2943 2938 2936
3106 3107 3108 3110 3111 3112 3113 3114 3114 3114 3115 3116 3117 3118 3118 3118 3119 3120 3120 3121 3122 3123 3124 3124 3124 3125 3125 3125 3125 3125 3125 3125 3124 3124 3123 3122 3121 3120 3119 3118 3117 3115 3114 3112 3111 3109 3107 3106 3103 3101 3099 3097 3095 3092 3090 3087 3085 3083 3080 3077 3073 3070 3066 3062 3058 3053 3048 3043 3038 3033 3028 3023 3017 3011 3003 2995 2987 2979 2970 2962 2954 2947 2941 2935 2933
3103 3104 3106 3107 3108 3109 3111 3111 3111 3111 3112 3114 3115 3115 3116 3116 3117 3118 3118 3119 3120 3121 3122 3123 3123 3123 3124 3124 3124 3124 3124 3123 3123 3122 3122 3121 3120 3119 3118 3117 3116 3114 3113 3112 3110 3109 3107 3105 3102 3100 3098 3096 3094 3092 3089 3087 3084 3082 3079 3076 3072 3068 3064 3060 3056 3052 3048 3044 3039 3034 3028 3022 3016 3010 3002 2995 2987 2978 2969 2961 2953 2945 2940 2936 2931
3100 3101 3103 3104 3106 3107 3108 3108 3108 3109 3110 3111 3112 3113 3114 3114 3114 3115 3116 3117 3119 3120 3121 3121 3121 3122 3122 3122 3122 3122 3122 3122 3122 3121 3120 3120 3119 3119 3118 3116 3115 3114 3113 3111 3110 3108 3106 3104 3102 3100 3098 3096 3094 3091 3089 3086 3084 3081 3077 3074 3071 3067 3062 3058 3054 3050 3046 3042 3037 3032 3027 3021 3015 3009 3002 2994 2986 2978 2970 2961 2952 2944 2939 2936 2932
3097 3099 3100 3102 3103 3104 3105 3106 3106 3106 3107 3109 3110 3111 3111 3112 3112 3113 3115 3116 3117 3118 3119 3119 3120 3120 3120 3121 3121 3121 3121 3121 3121 3120 3119 3119 3118 3118 3117 3115 3114 3113 3112 3111 3109 3107 3105 3103 3101 3099 3098 3096 3094 3091 3089 3086 3083 3080 3076 3073 3069 3065 3061 3057 3053 3049 3045 3040 3035 3030 3025 3019 3014 3008 3001 2994 2986 2978 2970 2961 2952 2945 2939 2935 2932
3094 3095 3097 3099 3100 3101 3102 3103 3103 3104 3105 3106 3107 3108 3109 3110 3110 3111 3113 3114 3116 3117 3118 3118 3118 3118 3119 3119 3120 3120 3120 3120 3119 3119 3119 3118 3118 3117 3116 3115 3114 3113 3112 3110 3108 3106 3104 3102 3101 3099 3098 3096 3094 3091 3089 3086 3083 3079 3076 3072 3068 3064 3061 3058 3054 3050 3045 3041 3035 3030 3024 3018 3013 3007 3000 2993 2985 2977 2969 2961 2953 2947 2942 2936 2931
3091 3092 3094 3096 3097 3098 3099 3100 3101 3101 3102 3103 3104 3106 3107 3108 3108 3109 3111 3112 3114 3115 3116 3116 3117 3117 3117 3118 3118 3118 3118 3118 3118 3118 3118 3117 3117 3116 3115 3114 3113 3112 3111 3109 3108 3106 3104 3102 3101 3099 3097 3095 3093 3091 3089 3086 3083 3079 3076 3072 3069 3066 3062 3058 3054 3050 3046 3041 3035 3029 3023 3017 3011 3005 2999 2993 2986 2978 2970 2963 2957 2951 2945 2939 2932
3088 3089 3091 3092 3093 3095 3096 3097 3098 3099 3100 3101 3102 3103 3105 3106 3106 3107 3109 3110 3112 3113 3114 3115 3115 3115 3116 3116 3117 3117 3117 3117 3117 3117 3117 3116 3116 3115 3114 3113 3112 3111 3110 3109 3107 3105 3104 3102 3100 3098 3097 3095 3093 3091 3088 3085 3082 3079 3076 3072 3069 3066 3062 3059 3055 3051 3046 3041 3035 3029 3023 3016 3009 3004 2998 2992 2986 2980 2974 2968 2961 2954 2947 2941 2935
3085 3087 3088 3088 3090 3092 3093 3094 3096 3096 3097 3098 3099 3100 3102 3103 3104 3105 3106 3108 3110 3111 3112 3113 3113 3114 3115 3115 3115 3116 3116 3116 3116 3116 3116 3115 3115 3114 3113 3112 3111 3110 3109 3108 3107 3105 3103 3102 3100 3098 3096 3094 3092 3090 3087 3085 3082 3078 3075 3072 3069 3066 3062 3059 3055 3050 3046 3041 3035 3029 3023 3017 3010 3004 2998 2993 2989 2985 2979 2973 2966 2958 2950 2943 2936
3083 3085 3085 3086 3088 3089 3090 3091 3093 3094 3094 3095 3097 3098 3100 3101 3102 3103 3104 3106 3108 3110 3111 3111 3112 3112 3113 3114 3114 3114 3115 3116 3116 3116 3115 3115 3114 3113 3112 3111 3111 3110 3109 3108 3106 3105 3103 3101 3100 3098 3096 3094 3092 3089 3087 3084 3081 3078 3075 3072 3069 3065 3062 3058 3054 3050 3046 3041 3035 3030 3025 3019 3013 3007 3002 2998 2992 2987 2981 2975 2968 2962 2955 2948 2940
3080 3081 3082 3084 3085 3086 3087 3089 3090 3091 3092 3093 3094 3095 3097 3098 3099 3100 3102 3104 3106 3108 3109 3110 3110 3111 3111 3112 3113 3113 3114 3115 3115 3115 3114 3114 3113 3112 3111 3111 3110 3109 3108 3107 3105 3104 3103 3101 3099 3097 3096 3094 3091 3089 3087 3084 3081 3078 3075 3072 3069 3065 3061 3057 3053 3049 3045 3041 3036 3031 3026 3021 3016 3011 3006 3000 2994 2987 2981 2975 2968 2962 2957 2950 2944
3077 3078 3079 3081 3082 3083 3084 3086 3087 3088 3089 3090 3091 3092 3094 3095 3096 3098 3100 3102 3104 3106 3107 3108 3109 3109 3110 3111 3111 3112 3113 3113 3114 3114 3113 3113 3112 3111 3110 3110 3109 3108 3107 3106 3104 3103 3102 3100 3098 3097 3095 3093 3091 3088 3085 3083 3080 3078 3075 3072 3069 3065 3061 3057 3053 3049 3046 3042 3037 3033 3028 3024 3019 3013 3007 3001 2995 2989 2982 2976 2969 2963 2958 2952 2946
3074 3075 3077 3078 3079 3080 3081 3082 3084 3085 3086 3087 3088 3090 3091 3092 3094 3096 3098 3100 3103 3104 3106 3107 3107 3108 3108 3109 3110 3111 3112 3112 3112 3112 3112 3111 3111 3110 3109 3109 3108 3107 3106 3105 3104 3102 3101 3099 3098 3096 3094 3092 3090 3087 3085 3082 3080 3077 3075 3072 3069 3065 3062 3058 3055 3051 3047 3043 3038 3034 3030 3025 3020 3014 3009 3003 2997 2991 2985 2979 2973 2967 2961 2955 2948
3071 3072 3073 3075 3076 3077 3078 3079 3081 3082 3083 3084 3085 3087 3088 3090 3092 3094 3096 3098 3100 3102 3103 3105 3106 3106 3107 3108 3109 3110 3110 3110 3110 3110 3110 3110 3110 3109 3108 3108 3107 3106 3105 3104 3103 3102 3100 3099 3097 3095 3093 3091 3089 3087 3085 3083 3080 3077 3074 3072 3069 3065 3062 3058 3055 3051 3047 3043 3039 3034 3030 3026 3021 3016 3011 3005 2999 2993 2988 2982 2976 2970 2964 2958 2951
3068 3069 3070 3071 3073 3074 3075 3076 3077 3079 3080 3081 3082 3084 3085 3087 3088 3090 3092 3094 3097 3099 3101 3102 3103 3104 3105 3106 3107 3108 3109 3109 3109 3109 3109 3108 3108 3108 3107 3106 3105 3104 3103 3103 3102 3101 3099 3098 3096 3094 3093 3091 3089 3087 3085 3082 3080 3077 3074 3071 3068 3064 3061 3058 3054 3051 3047 3043 3039 3035 3031 3026 3022 3017 3012 3007 3001 2996 2991 2985 2979 2973 2967 2960 2954
3066 3067 3068 3068 3070 3071 3072 3073 3074 3075 3076 3077 3079 3081 3083 3084 3086 3087 3089 3091 3094 3097 3099 3100 3101 3102 3103 3104 3105 3106 3107 3107 3107 3107 3107 3107 3107 3106 3106 3105 3104 3103 3102 3102 3101 3100 3098 3097 3095 3093 3092 3089 3087 3086 3083 3081 3078 3076 3073 3069 3066 3063 3060 3057 3054 3050 3047 3043 3040 3036 3032 3028 3023 3018 3014 3009 3004 2999 2994 2989 2983 2977 2971 2964 2958
3063 3065 3066 3066 3068 3069 3069 3070 3071 3072 3073 3074 3076 3078 3079 3081 3083 3085 3088 3090 3092 3095 3097 3098 3099 3100 3101 3102 3104 3105 3105 3105 3105 3105 3106 3106 3105 3105 3104 3103 3103 3102 3101 3100 3100 3099 3097 3095 3094 3092 3090 3088 3086 3084 3081 3079 3076 3074 3071 3069 3066 3062 3059 3056 3053 3049 3046 3043 3040 3037 3033 3029 3025 3020 3016 3011 3006 3001 2996 2991 2986 2980 2975 2970 2964
3061 3062 3063 3063 3065 3066 3066 3066 3067 3069 3070 3071 3073 3075 3076 3077 3080 3083 3086 3088 3090 3093 3095 3096 3097 3098 3099 3101 3102 3103 3103 3103 3103 3104 3104 3104 3104 3103 3103 3102 3101 3101 3100 3099 3098 3097 3095 3094 3092 3090 3089 3087 3084 3082 3080 3078 3075 3072 3070 3067 3064 3061 3058 3055 3052 3049 3046 3043 3040 3037 3033 3030 3026 3022 3018 3014 3009 3004 2999 2994 2989 2984 2979 2973 2968
3057 3058 3059 3059 3061 3062 3063 3063 3064 3066 3067 3068 3070 3071 3073 3075 3078 3080 3083 3086 3088 3091 3093 3094 3095 3096 3098 3099 3100 3101 3101 3101 3102 3102 3102 3102 3102 3101 3101 3101 3100 3099 3098 3098 3097 3095 3094 3092 3090 3089 3087 3085 3083 3081 3078 3076 3074 3071 3068 3066 3063 3060 3058 3055 3052 3049 3047 3044 3041 3037 3034 3030 3027 3023 3019 3015 3011 3007 3002 2997 2992 2987 2982 2977 2972
3054 3055 3055 3056 3058 3059 3059 3060 3061 3062 3064 3065 3065 3067 3069 3072 3075 3078 3081 3083 3086 3088 3090 3092 3093 3094 3096 3097 3098 3099 3099 3099 3100 3100 3100 3100 3100 3100 3099 3099 3099 3098 3097 3096 3095 3094 3092 3090 3089 3087 3085 3083 3081 3079 3077 3075 3073 3070 3067 3065 3062 3060 3057 3054 3052 3049 3046 3043 3040 3037 3034 3031 3028 3024 3020 3017 3013 3008 3004 2999 2994 2989 2985 2980 2976
3050 3051 3052 3054 3055 3055 3056 3057 3058 3060 3061 3061 3061 3064 3067 3070 3072 3075 3078 3080 3082 3085 3087 3088 3090 3091 3093 3094 3095 3096 3097 3097 3098 3098 3098 3098 3098 3098 3098 3097 3097 3096 3095 3094 3093 3092 3090 3089 3087 3085 3083 3081 3079 3077 3075 3073 3071 3069 3066 3063 3061 3058 3056 3053 3051 3048 3046 3043 3040 3037 3034 3031 3029 3026 3022 3018 3015 3011 3006 3002 2998 2993 2989 2984 2980
3047 3047 3049 3050 3051 3051 3052 3053 3055 3056 3056 3057 3059 3062 3065 3067 3069 3072 3075 3077 3079 3081 3083 3084 3086 3087 3089 3091 3093 3093 3094 3095 3095 3095 3096 3096 3096 3096 3096 3095 3095 3094 3093 3092 3091 3090 3088 3087 3085 3083 3081 3079 3077 3075 3073 3071 3069 3067 3064 3062 3059 3057 3054 3052 3050 3047 3045 3042 3039 3036 3034 3031 3028 3026 3023 3020 3016 3013 3009 3005 3001 2997 2993 2989 2985
3043 3044 3046 3048 3048 3048 3048 3050 3051 3051 3052 3053 3056 3059 3061 3064 3066 3069 3072 3074 3076 3078 3079 3081 3083 3084 3087 3089 3090 3090 3091 3092 3092 3093 3094 3094 3094 3094 3094 3093 3093 3092 3091 3090 3089 3087 3086 3084 3082 3081 3079 3077 3075 3073 3071 3070 3067 3065 3062 3060 3058 3055 3053 3051 3048 3046 3043 3041 3039 3036 3033 3031 3028 3025 3023 3020 3017 3014 3010 3007 3004 3000 2996 2992 2988
3039 3040 3042 3044 3045 3045 3045 3046 3047 3048 3049 3050 3052 3054 3057 3060 3063 3066 3068 3071 3073 3075 3077 3079 3081 3083 3085 3086 3086 3087 3088 3089 3090 3091 3091 3091 3091 3091 3091 3091 3090 3089 3089 3087 3086 3085 3083 3082 3080 3078 3077 3075 3073 3071 3069 3067 3065 3063 3061 3059 3056 3054 3052 3049 3047 3045 3042 3040 3038 3036 3033 3031 3028 3025 3023 3020 3017 3015 3012 3009 3005 3002 2998 2994 2991
3036 3037 3039 3041 3041 3041 3042 3043 3044 3045 3046 3048 3050 3052 3054 3056 3060 3063 3065 3068 3070 3072 3074 3076 3079 3081 3083 3083 3083 3084 3085 3086 3087 3088 3088 3088 3088 3088 3088 3088 3088 3087 3086 3085 3084 3083 3081 3079 3078 3076 3074 3073 3071 3069 3067 3065 3063 3061 3059 3057 3055 3053 3050 3048 3046 3044 3042 3039 3037 3035 3033 3030 3028 3026 3023 3020 3018 3015 3013 3010 3007 3004 3000 2997 2994
3034 3035 3036 3037 3038 3038 3038 3039 3040 3042 3044 3046 3048 3050 3053 3055 3057 3060 3063 3065 3067 3069 3071 3074 3076 3078 3080 3080 3081 3081 3082 3084 3084 3085 3085 3085 3085 3085 3085 3085 3085 3084 3083 3082 3082 3080 3079 3077 3075 3074 3072 3071 3069 3067 3064 3062 3060 3058 3057 3055 3053 3051 3049 3046 3044 3042 3040 3038 3036 3034 3032 3029 3027 3025 3023 3021 3018 3016 3013 3011 3008 3006 3003 3000 2997
3031 3032 3033 3033 3034 3035 3035 3035 3037 3039 3040 3042 3044 3047 3050 3053 3055 3057 3059 3061 3064 3066 3068 3070 3073 3075 3076 3077 3078 3079 3080 3081 3081 3082 3082 3082 3082 3082 3082 3082 3081 3081 3080 3079 3078 3077 3076 3074 3073 3071 3070 3068 3066 3064 3062 3060 3058 3056 3054 3053 3051 3049 3047 3044 3042 3040 3038 3036 3034 3032 3030 3028 3026 3024 3022 3020 3018 3015 3013 3011 3009 3007 3004 3002 2999
3029 3029 3029 3030 3031 3032 3032 3033 3035 3036 3037 3039 3041 3044 3047 3050 3052 3054 3056 3058 3060 3062 3065 3067 3069 3071 3073 3074 3075 3076 3077 3078 3079 3079 3079 3079 3079 3079 3079 3078 3078 3078 3077 3076 3075 3074 3073 3071 3070 3068 3067 3065 3063 3061 3059 3058 3056 3054 3052 3050 3048 3047 3044 3042 3040 3038 3036 3034 3032 3030 3029 3027 3025 3023 3021 3019 3017 3015 3013 3011 3009 3007 3005 3003 3000
3025 3025 3026 3027 3028 3029 3030 3031 3032 3033 3034 3036 3038 3041 3043 3046 3048 3050 3052 3054 3057 3059 3062 3064 3066 3068 3069 3070 3071 3072 3074 3075 3075 3076 3076 3076 3076 3075 3075 3075 3075 3074 3074 3073 3072 3071 3070 3068 3067 3065 3064 3062 3060 3059 3057 3055 3053 3052 3050 3048 3046 3044 3042 3040 3038 3037 3035 3032 3030 3029 3027 3025 3023 3021 3019 3018 3016 3014 3012 3010 3009 3007 3005 3003 3001
3021 3022 3023 3024 3025 3026 3027 3029 3029 3030 3031 3033 3035 3038 3040 3042 3044 3046 3048 3050 3053 3056 3059 3061 3063 3064 3066 3067 3068 3069 3070 3071 3072 3072 3072 3072 3072 3072 3072 3072 3071 3071 3070 3069 3069 3067 3066 3065 3064 3062 3061 3059 3057 3056 3055 3053 3051 3049 3047 3046 3044 3042 3041 3039 3037 3035 3033 3031 3029 3027 3025 3023 3021 3020 3018 3016 3015 3013 3011 3009 3008 3006 3005 3003 3001
3019 3020 3021 3022 3023 3024 3025 3026 3026 3027 3028 3030 3032 3034 3036 3038 3040 3042 3044 3047 3050 3053 3056 3058 3060 3061 3063 3064 3065 3066 3067 3067 3068 3068 3068 3068 3068 3068 3068 3068 3068 3067 3067 3066 3065 3064 3063 3062 3060 3059 3058 3056 3055 3053 3052 3050 3049 3047 3045 3043 3042 3040 3038 3037 3035 3033 3031 3029 3027 3025 3023 3022 3020 3018 3016 3015 3013 3012 3010 3008 3006 3005 3004 3002 3001
3017 3018 3019 3019 3020 3021 3022 3023 3023 3024 3025 3026 3028 3030 3032 3034 3036 3039 3042 3045 3048 3050 3053 3055 3057 3058 3059 3060 3061 3062 3063 3063 3064 3064 3065 3065 3064 3064 3064 3064 3064 3064 3063 3062 3062 3061 3059 3058 3057 3056 3055 3053 3052 3051 3049 3048 3046 3045 3043 3041 3039 3038 3036 3035 3033 3031 3030 3028 3026 3024 3022 3020 3019 3017 3015 3014 3012 3010 3009 3007 3005 3004 3002 3001 3000
3015 3015 3016 3017 3018 3018 3019 3020 3020 3021 3022 3023 3024 3026 3028 3031 3033 3036 3039 3042 3045 3047 3050 3052 3053 3054 3056 3056 3057 3058 3059 3059 3060 3060 3061 3061 3061 3061 3061 3061 3060 3060 3059 3059 3058 3057 3056 3055 3054 3052 3051 3050 3049 3048 3046 3045 3043 3042 3040 3039 3037 3036 3034 3032 3031 3029 3028 3026 3025 3023 3021 3019 3017 3016 3014 3012 3011 3009 3008 3006 3004 3003 3001 3000 2998
3012 3012 3013 3014 3015 3015 3016 3017 3017 3018 3019 3019 3020 3022 3025 3028 3031 3034 3037 3039 3042 3044 3047 3048 3049 3051 3052 3052 3053 3054 3055 3055 3056 3056 3056 3057 3057 3057 3057 3057 3056 3056 3055 3055 3054 3053 3052 3051 3050 3049 3048 3047 3046 3044 3043 3042 3041 3039 3038 3036 3035 3033 3032 3030 3029 3028 3026 3025 3023 3022 3020 3018 3016 3014 3013 3011 3009 3008 3006 3005 3003 3002 3000 2998 2997
3008 3009 3010 3011 3012 3012 3013 3014 3015 3015 3016 3016 3017 3020 3023 3025 3028 3031 3034 3037 3039 3041 3043 3044 3046 3047 3048 3048 3049 3050 3050 3051 3051 3052 3052 3052 3053 3053 3053 3052 3052 3051 3051 3051 3050 3049 3049 3048 3047 3045 3044 3043 3042 3041 3040 3039 3037 3036 3035 3033 3032 3031 3029 3028 3027 3026 3024 3023 3022 3020 3018 3017 3015 3013 3012 3010 3008 3007 3005 3003 3002 3000 2999 2997 2996
3005 3006 3007 3008 3009 3009 3010 3011 3012 3013 3013 3014 3015 3018 3020 3023 3026 3029 3032 3034 3036 3038 3039 3041 3042 3042 3043 3045 3045 3046 3046 3047 3047 3048 3048 3048 3049 3049 3048 3048 3048 3048 3047 3047 3046 3045 3045 3044 3043 3042 3041 3040 3039 3038 3037 3035 3034 3033 3032 3030 3029 3028 3027 3026 3025 3023 3022 3020 3019 3018 3017 3015 3014 3012 3011 3009 3007 3005 3004 3002 3000 2999 2997 2996 2994